Gracewood, GA

10:07 PM EST on February 13, 2016 (GMT -0500)
Augusta Regional At Bush

Weather History for KAGS - October, 2013

Change the Weather History Date:

Monday, October 28, 2013

  Actual Average Record
Temperature  
Mean Temperature 62 °F 61 °F  
Max Temperature 73 °F 74 °F 89 °F (1984)
Min Temperature 50 °F 47 °F 28 °F (1961)
Degree Days  
Heating Degree Days 3 6  
Month to date heating degree days 73 87  
Since 1 July heating degree days 73 94  
Cooling Degree Days 0 1  
Month to date cooling degree days 87 84  
Year to date cooling degree days 1855 2068  
Growing Degree Days 12 (Base 50)    
Moisture  
Dew Point 54 °F    
Average Humidity 75    
Maximum Humidity 100    
Minimum Humidity 49    
Precipitation  
Precipitation T in 0.08 in 1.27 in (1908)
Month to date precipitation 0.36 3.02  
Year to date precipitation 46.82 37.11  
Sea Level Pressure  
Sea Level Pressure 30.22 in    
Wind  
Wind Speed 1 mph (WSW)    
Max Wind Speed 6 mph    
Max Gust Speed 8 mph    
Visibility 8 miles    
Events Rain    
T = Trace of Precipitation, MM = Missing Value Source: NWS Daily Summary

Daily Weather History Graph

Daily Weather History Graph

Search for Another Location

Airport or City:

Trip Planner

Search our weather history database for the weather conditions in past years. The results will help you decide how hot, cold, wet, or windy it might be!

Date:

Astronomy

Oct. 28, 2013 Rise Set
Actual Time 7:43 AM EDT 6:39 PM EDT
Civil Twilight 7:17 AM EDT 7:05 PM EDT
Nautical Twilight 6:48 AM EDT 7:34 PM EDT
Astronomical Twilight 6:19 AM EDT 8:03 PM EDT
Moon 1:52 AM EDT (10/28) 3:04 PM EDT (10/28)
Length of Visible Light 11h 47m
Length of Day
10h 56m
Waning Crescent, 34% of the Moon is Illuminated
Oct 28
Waning Crescent
Nov 3
New
Nov 10
First Quarter
Nov 17
Full
Nov 25
Last Quarter

Hourly Weather History & Observations

Time (EDT) Temp. Dew Point Humidity Pressure Visibility Wind Dir Wind Speed Gust Speed Precip Events Conditions
12:02 AM 51.8 °F 50.0 °F 94% 30.15 in 3.0 mi Calm Calm - N/A   Clear
12:53 AM 53.1 °F 51.1 °F 93% 30.15 in 9.0 mi Calm Calm - N/A   Clear
1:53 AM 52.0 °F 51.1 °F 97% 30.14 in 6.0 mi Calm Calm - N/A   Clear
2:53 AM 53.1 °F 51.1 °F 93% 30.14 in 8.0 mi Calm Calm - N/A   Clear
3:53 AM 54.0 °F 53.1 °F 97% 30.14 in 9.0 mi Calm Calm - N/A   Partly Cloudy
4:53 AM 55.0 °F 54.0 °F 96% 30.14 in 7.0 mi Calm Calm - 0.00 in Rain Light Rain
5:53 AM 55.0 °F 54.0 °F 96% 30.17 in 6.0 mi SW 3.5 mph - 0.00 in Rain Light Rain
6:53 AM 55.0 °F 54.0 °F 96% 30.19 in 5.0 mi Calm Calm - 0.00 in Rain Light Rain
7:53 AM 55.9 °F 55.0 °F 97% 30.21 in 6.0 mi Calm Calm - 0.00 in Rain Light Rain
8:53 AM 57.9 °F 55.9 °F 93% 30.23 in 5.0 mi Calm Calm - 0.00 in   Clear
9:53 AM 61.0 °F 57.9 °F 90% 30.26 in 6.0 mi Calm Calm - N/A   Overcast
10:53 AM 64.9 °F 57.9 °F 78% 30.27 in 10.0 mi NNW 3.5 mph - N/A   Overcast
11:53 AM 68.0 °F 55.0 °F 63% 30.27 in 10.0 mi Calm Calm - N/A   Overcast
12:53 PM 70.0 °F 54.0 °F 57% 30.25 in 10.0 mi Calm Calm - N/A   Partly Cloudy
1:53 PM 71.1 °F 52.0 °F 51% 30.24 in 10.0 mi Calm Calm - N/A   Mostly Cloudy
2:53 PM 72.0 °F 52.0 °F 49% 30.22 in 10.0 mi Calm Calm - N/A   Overcast
3:53 PM 72.0 °F 51.1 °F 48% 30.21 in 10.0 mi West 3.5 mph - N/A   Overcast
4:53 PM 72.0 °F 52.0 °F 49% 30.21 in 10.0 mi WSW 4.6 mph - N/A   Overcast
5:53 PM 70.0 °F 53.1 °F 55% 30.21 in 10.0 mi WSW 3.5 mph - N/A   Overcast
6:53 PM 61.0 °F 53.1 °F 75% 30.22 in 10.0 mi Calm Calm - N/A   Clear
7:53 PM 57.9 °F 55.9 °F 93% 30.24 in 10.0 mi Calm Calm - N/A   Mostly Cloudy
8:53 PM 57.0 °F 54.0 °F 89% 30.26 in 10.0 mi Calm Calm - N/A   Overcast
9:53 PM 55.9 °F 54.0 °F 93% 30.27 in 10.0 mi Calm Calm - N/A   Scattered Clouds
10:53 PM 53.1 °F 53.1 °F 100% 30.27 in 8.0 mi Calm Calm - N/A   Mostly Cloudy
11:53 PM 54.0 °F 53.1 °F 97% 30.28 in 10.0 mi Calm Calm - N/A   Overcast